Location: Oakland
(41.0130°N, 74.2650°W)
Time: 18:48:24
(UTC-05:00)

Daily predictions for brighter satellites

Satellite Brightness Start Highest point End
(mag) Time Altitude Azimuth Time Altitude Azimuth Time Altitude Azimuth
BREEZE M DEB (TANK) 3.6 16:49:52 10° NW 16:52:08 23° N 16:56:22 10° ENE
Cosmos 2181 Rocket 4.1 16:55:36 10° S 17:01:49 63° E 17:08:09 10° NNE
Meteor 1-5 Rocket 4.3 16:56:36 10° N 17:01:51 50° ENE 17:07:12 10° SSE
IDEFIX/ARIANE 42P 2.8 16:57:32 10° SE 17:02:31 49° ENE 17:07:30 10° N
Cosmos 1378 Rocket 3.6 16:58:51 10° S 17:03:09 86° W 17:07:29 10° N
USA 234 3.5 16:59:31 10° NE 17:06:01 68° NW 17:12:28 10° WSW
Cosmos 372 Rocket 4.0 17:03:24 10° SSW 17:08:37 75° ESE 17:13:53 10° NNE
Abrixas 4.3 17:07:57 10° WNW 17:10:14 20° N 17:12:31 10° NE
Cosmos 1484 Rocket 4.0 17:09:07 10° ESE 17:11:54 20° ENE 17:14:41 10° NNE
Cosmos 2082 Rocket 3.9 17:11:15 10° NNE 17:13:44 13° NE 17:15:49 11° ENE
OTV 4 1.9 17:11:29 10° WSW 17:14:14 33° S 17:17:00 10° ESE
Cosmos 1455 Rocket 3.9 17:11:16 10° NNE 17:15:08 29° ENE 17:19:00 10° SE
Cosmos 1295 Rocket 4.4 17:13:24 10° N 17:19:34 78° E 17:25:38 10° S
Cosmos 1833 Rocket 4.4 17:17:38 10° NNE 17:19:51 12° NE 17:21:00 12° ENE
Cosmos 1125 Rocket 4.2 17:17:17 10° SW 17:22:29 56° WNW 17:27:44 10° N
Cosmos 2341 Rocket 4.3 17:17:25 10° N 17:23:38 75° W 17:29:49 10° S
Thor Agena Rocket 3.5 17:19:46 10° NNE 17:24:59 83° ESE 17:30:15 10° SSW
ATLAS 2AS CENTAUR R/B 3.1 17:17:48 10° NNW 17:25:46 56° NE 17:33:14 10° SE
Cosmos 494 Rocket 4.5 17:21:23 10° N 17:26:15 37° ENE 17:31:07 10° SE
Okean 1 4.0 17:31:57 10° SSE 17:35:34 32° E 17:38:44 13° NNE
Cosmos 1536 4.1 17:32:01 10° NNW 17:35:55 46° W 17:39:49 10° SSW
Cosmos 1500 4.3 17:33:28 10° NNE 17:36:34 23° ENE 17:39:39 10° SE
Meteor 1-18 Rocket 4.3 17:33:03 10° S 17:38:31 56° E 17:44:06 10° NNE
Cosmos 2263 Rocket 4.3 17:35:11 10° WSW 17:39:28 22° NW 17:43:47 10° N
Cosmos 2251 Rocket 3.6 17:34:12 10° NNW 17:39:29 57° ENE 17:44:42 10° SSE
Meteor 1-28 Rocket 4.5 17:40:03 21° E 17:40:35 22° E 17:43:33 10° SE
BREEZE-M R/B 4.5 17:34:35 10° SW 17:46:07 67° SE 17:49:49 22° ENE
ISS -2.8 17:44:16 10° WSW 17:47:30 54° NNW 17:49:07 26° NE
MSX 3.8 17:46:46 10° SSE 17:52:32 89° WSW 17:58:19 10° NNW
SL-27 R/B 2.6 17:51:38 10° NNW 17:55:19 80° WSW 17:58:56 10° SSE
Nadezhda 3 Rocket 4.3 17:50:26 10° SSE 17:56:09 41° E 18:01:56 10° NNE
Cosmos 1812 2.6 17:52:33 10° S 17:56:25 85° E 18:00:17 10° N
Cosmos 1346 Rocket 3.3 17:53:02 10° SSE 17:56:36 34° E 17:57:08 33° ENE
Cosmos 864 Rocket 4.5 17:53:52 10° N 18:00:10 87° E 18:06:29 10° S
CZ-4 R/B 3.6 17:56:54 10° SSW 18:00:33 29° W 18:04:13 10° NW
COSMO-SKYMED 1 2.4 17:57:34 10° NNE 18:01:51 73° ESE 18:06:10 10° S
Tiangong 1 3.4 18:01:17 10° S 18:02:26 13° SSE 18:02:26 13° SSE
Cosmos 1544 Rocket 4.1 17:58:54 10° NNW 18:03:18 62° W 18:07:42 10° S
Cosmos 1844 Rocket 3.3 17:59:51 10° SW 18:05:19 55° WNW 18:10:52 10° NNE
GEOS 3 Rocket 3.5 18:00:51 10° SE 18:05:57 75° NE 18:11:05 10° NNW
CZ-2C R/B 3.9 18:02:36 10° SSW 18:07:12 39° W 18:11:57 10° NNW
Cosmos 1238 Rocket 3.4 18:08:41 10° SSW 18:11:31 40° W 18:13:47 14° NNW
Meteor 1-12 Rocket 4.3 18:06:33 10° N 18:12:21 84° W 18:18:13 10° S
Cosmos 1844 4.1 18:10:03 10° SW 18:15:33 61° WNW 18:20:25 13° NNE
Cosmos 2297 4.1 18:11:28 10° S 18:16:40 39° ESE 18:17:27 37° E
Cosmos 1975 2.8 18:13:04 10° N 18:17:11 86° W 18:21:13 10° S
CZ-3A R/B 4.3 18:11:30 10° W 18:17:16 51° N 18:35:18 20° ENE
BREEZE-M DEB (TANK) 3.9 18:17:30 10° WNW 18:18:34 18° NNW 18:18:34 18° NNW
Meteor 2-14 Rocket 4.5 18:15:03 10° N 18:21:06 54° ENE 18:27:05 10° SSE
Cosmos 1536 Rocket 4.1 18:18:15 10° SSW 18:22:39 61° W 18:27:06 10° N
Meteor 1-19 Rocket 4.3 18:22:42 10° SSE 18:28:16 52° E 18:29:45 42° NE
Cosmos 2278 Rocket 2.3 18:27:37 10° SSW 18:33:14 72° WNW 18:36:35 25° NNE
Meteor 2-21 Rocket 4.3 18:30:39 10° N 18:36:54 81° E 18:43:03 10° S
Meteor 2-16 Rocket 4.3 18:36:33 10° N 18:42:38 73° E 18:48:42 10° SSE
Meteor 1-13 Rocket 4.1 18:37:25 10° S 18:43:02 86° E 18:46:06 29° N
Timation 1 Rocket 4.3 18:40:39 10° S 18:46:14 57° ESE 18:46:14 57° ESE
Okean 1-7 Rocket 3.8 18:42:59 10° S 18:46:43 61° S 18:46:43 61° S
OTV 4 3.5 18:48:43 10° SW 18:49:39 13° SW 18:49:39 13° SW
CZ-3B DEB 3.2 18:46:44 10° W 18:51:13 52° NNW 18:55:17 31° NE
Cosmos 1535 Rocket 4.3 18:47:55 10° N 18:54:17 79° E 19:00:31 10° S
Timation 2 Rocket 4.0 18:50:19 10° NNW 18:57:10 82° ENE 18:59:43 43° SSE
Cosmos 2082 Rocket 2.4 18:53:09 10° NNW 18:57:45 58° N 18:57:45 58° N
NOSS 3-4 (A) 4.4 18:54:40 10° NNW 18:59:50 38° NNE 18:59:50 38° NNE
NOSS 3-4 (C) 4.4 18:54:47 10° NNW 18:59:55 37° NNE 18:59:55 37° NNE
Cosmos 1833 Rocket 3.5 18:59:12 10° NNW 19:02:46 39° N 19:02:46 39° N
BREEZE-M DEB (TANK) 4.4 19:01:42 10° WNW 19:05:27 27° NNW 19:05:27 27° NNW
ATLAS 2AS CENTAUR R/B 4.3 19:09:24 10° NW 19:16:29 36° WSW 19:23:08 10° S
Cosmos 1821 Rocket 4.2 19:14:47 10° NNW 19:20:50 66° W 19:26:50 10° S
ATLAS 3B CENTAUR R/B 4.3 19:51:29 10° WSW 20:00:10 27° SSW 20:00:10 27° SSW
FALCON 9 R/B 4.3 20:18:56 10° W 20:26:28 32° WSW 20:26:28 32° WSW
